Location: Nitra
(0.0000°N, 18.0833°E)
Time: 05:17:03
(UTC+01:00)

Cosmos 1939 Rocket - Pass Details

Date: 24 January 2021
Orbit: 531 x 585 km, 97.4° (Epoch: 04 March)

Event Time Altitude Azimuth Distance (km) Brightness Sun altitude
Rises 18:19:00 0° 173° (S) 2,803 6.6 -4.5°
Reaches altitude 10° 18:21:10 10° 175° (S) 1,903 5.8 -5.0°
Maximum altitude 18:25:17 69° 258° (WSW) 624 3.4 -6.0°
Drops below altitude 10° 18:29:22 10° 342° (NNW) 1,891 5.6 -7.0°
Sets 18:31:31 0° 345° (NNW) 2,784 6.4 -7.5°
